Location: Burleson Alternative School
(32.5290°N, 97.3406°W)
Time: 00:45:10
(UTC+00:00)

ISS - Visible Passes

Search period start: 06 October 2024 00:00
Search period end: 16 October 2024 00:00
Orbit: 412 x 425 km, 51.6° (Epoch: 05 October)

Date Brightness Start Highest point End Pass type
(mag) Time Alt. Az. Time Alt. Az. Time Alt. Az.
12 Oct -0.4 12:06:20 10° SSE 12:07:39 12° SE 12:08:59 10° ESE visible
14 Oct -2.4 12:04:37 10° SSW 12:07:47 42° SE 12:10:57 10° ENE visible
15 Oct -1.3 11:17:02 10° S 11:19:38 21° SE 11:22:14 10° ENE visible
